SCP
0 0 0 0 0 0 0 0 0 0 0 0 -0 0 -0 0 -0 -0 -0 -0 -0 0 0 0 0 0 0 0 0 0 0 0 0 0 0 0 0 0 0 0 0 0 0 0
0 0 0 0 0 0 0 0 0 0 0 0 0 -0 0 0 0 0 0 0 0 -0 0 0 0 0 0 0 0 0 0 0 0 0 0 0 0 0 0 0 0 0 0 0
0 -0 -0 -0 0 0 0 0 0 0 0 0 0 0 0 0 0 0 0 0 0 0 0 0 0 0 0 0 0 0 0 0 0 0 0 0 0 0 0 0 0 0 0 0
0 -0 -0 0 0 0 0 0 0 0 0 0 0 0 0 0 0 0 0 0 0 0 0 0 0 0 0 0 0 0 0 0 0 0 0 0 0 0 0 0 0 0 0 0
0 -0 -0 -0 0 0 0 0 0 0 -0 -0 0 0 0 0 0 0 0 0 0 0 0 -0 0 0 0 0 0 0 0 0 0 0 0 0 0 0 0 0 0 0 0 0
0 -0 -0 -0 0 0 0 0 0 0 0 0 0 0 0 0 0 0 0 0 0 0 0 -0 0 0 0 0 0 0 0 0 0 0 0 0 0 0 0 0 0 0 0 0
0 0 -0 -0 0 0 0 0 0 0 0 -0 -0 -0 -0 -0 0 -0 0 0 0 0 -0 -0 0 0 0 -0 0 0 -0 0 0 0 0 0 0 0 0 0 0 0 0 0
0 0 0 -0 -0 -0 0 0 0 0 0 -0 -0 -0 -0 -0 -0 -0 0 0 0 0 -0 -0 0 0 0 0 0 0 0 0 0 0 0 0 0 0 0 0 0 0 0 0
0 0 0 0 -0 0 0 0 0 0 0 0 0 -0 -0 -0 -0 -0 -0 0 0 0 0 0 0 0 0 0 0 0 0 0 0 0 0 0 0 0 0 0 0 0 0 0
0 0 0 0 -0 0 0 0 0 0 0 0 0 0 0 0 0 -0 -0 0 -0 0 0 0 0 0 0 0 0 0 0 0 0 0 0 0 0 0 0 0 0 0 0 0
0 0 0 0 -0 -0 0 0 0 0 0 0 0 0 0 0 0 0 0 0 0 0 -0 0 0 0 0 0 0 0 0 0 0 0 0 0 0 0 0 0 0 0 0 0
0 0 0 0 -0 0 0 0 0 0 0 0 0 0 0 0 0 0 -0 -0 -0 0 0 0 0 0 0 0 0 0 0 0 0 0 0 0 0 0 0 0 0 0 0 0
0 0 0 0 0 0 0 0 0 0 0 0 0 0 0 0 0 0 -0 -0 -0 0 -0 0 0 0 0 0 0 0 -0 -0 0 0 0 0 0 0 0 0 0 0 0 0
0 0 0 0 0 0 0 0 0 0 0 0 0 0 0 0 0 0 0 0 0 0 0 0 0 0 0 -0 -0 0 0 0 0 0 0 0 0 0 0 0 -0 -0 0 0
0 0 0 -0 -0 0 0 0 0 0 0 0 0 0 0 0 0 0 0 0 0 0 0 0 0 0 0 -0 -0 -0 -0 0 0 0 0 0 0 0 0 0 -0 -0 -0 -0
0 0 0 -0 0 0 0 0 0 0 0 0 0 0 0 0 0 0 0 0 0 0 0 0 0 0 0 0 0 0 0 0 -0 0 0 0 0 0 0 -0 -0 -0 -0 0
0 0 0 0 0 0 0 0 0 0 0 0 0 0 0 0 0 0 0 0 0 0 0 0 0 0 0 0 0 0 -0 -0 -0 -0 0 0 -0 0 0 0 -0 0 0 0
0 0 0 0 0 0 0 0 0 0 0 0 0 0 0 0 0 0 0 0 0 0 0 0 0 0 0 0 0 0 0 0 -0 -0 -0 0 0 0 0 0 0 0 0 0
0 0 0 0 0 0 0 0 -0 0 0 0 0 0 0 0 0 0 0 0 0 0 0 0 0 0 0 0 0 0 0 0 0 0 0 0 0 0 0 0 0 0 0 0
0 0 0 0 0 0 0 0 0 0 0 0 0 0 0 0 0 0 0 0 0 0 0 0 0 0 0 0 0 0 0 0 0 0 0 0 0 0 0 0 0 0 0 0
0 0 0 0 0 0 0 0 0 0 0 0 0 0 0 0 0 0 0 0 0 0 0 0 0 0 0 0 0 0 0 0 0 0 0 0 0 0 0 0 0 0 0 0
0 0 0 0 0 0 0 0 0 0 0 0 0 0 0 0 0 0 0 0 0 0 0 0 0 0 0 0 0 0 0 0 0 0 0 0 0 0 0 0 0 0 0 0
0 0 0 0 0 0 0 0 0 0 0 0 0 0 0 0 0 0 0 0 0 0 0 0 0 0 0 0 0 0 0 0 0 0 0 0 0 0 0 0 0 0 0 0
0 0 0 0 0 0 0 0 0 0 0 0 0 0 0 0 0 0 0 0 0 0 0 0 0 0 0 0 0 0 0 0 0 0 0 0 0 0 0 0 0 0 0 0
0 0 0 0 0 0 0 0 0 0 0 0 0 0 0 0 0 0 0 0 0 0 0 0 0 0 0 0 0 0 0 0 0 0 0 0 0 0 0 0 0 0 0 0
0 0 0 0 0 0 0 0 0 0 0 0 0 0 0 0 0 0 0 0 0 0 0 0 0 0 0 0 0 0 0 0 0 0 0 0 0 0 0 0 0 0 0 0
0 0 0 0 0 0 0 0 0 0 0 0 0 0 0 0 0 0 0 0 0 0 0 0 0 0 0 0 0 0 0 0 0 0 0 0 0 0 0 0 0 0 0 0
Wind_Speed_500mb
15 16 19 18 21 21 21 13 5 4 6 6 2 3 5 18 10 18 6 4 5 6 10 8 9 11 10 21 22 13 4 2 3 12 6 6 7 4 12 7 6 4 4 22
14 17 17 16 18 16 9 13 12 3 6 1 2 10 8 9 8 11 9 8 5 3 5 9 7 4 1 16 11 7 11 4 2 9 6 5 8 4 1 3 5 10 7 10
19 21 22 19 17 14 8 6 6 7 2 5 8 7 7 7 17 8 8 7 9 8 4 7 9 6 3 20 15 24 2 2 4 7 6 9 8 6 5 2 5 6 8 8
19 22 23 20 18 19 10 3 6 3 4 2 5 8 6 9 6 8 17 8 11 6 7 10 7 5 9 9 13 15 4 2 4 7 10 19 9 6 4 1 5 7 6 5
19 21 20 17 17 24 22 8 5 3 8 13 8 6 5 9 10 6 4 6 17 10 7 8 9 11 3 6 12 5 8 6 4 5 8 21 15 16 9 15 14 21 13 8
23 23 18 15 19 34 24 24 16 4 8 5 2 6 6 8 10 8 8 13 15 11 10 22 42 33 21 12 4 5 4 4 4 1 5 14 10 9 5 8 6 5 8 6
28 25 21 19 21 34 43 31 21 11 7 5 7 8 6 10 12 11 27 32 6 9 42 35 30 30 25 16 25 20 10 7 2 5 9 3 8 7 16 20 10 12 9 11
31 30 25 23 24 31 39 45 33 17 5 13 15 20 15 19 24 13 24 40 17 37 10 8 9 2 5 11 20 13 24 4 4 2 2 9 4 4 3 6 1 8 10 13
35 34 30 26 29 29 39 50 55 20 3 11 33 7 14 6 6 9 9 19 25 11 2 4 4 3 5 3 5 14 12 8 6 1 3 5 5 2 16 5 4 1 8 9
40 38 34 30 29 31 40 46 48 43 12 20 14 6 6 6 4 5 9 15 14 11 2 3 3 4 3 4 3 2 4 3 11 4 3 11 6 14 11 4 5 11 15 15
39 39 37 28 31 34 46 49 44 48 18 36 18 28 34 14 6 2 15 15 4 6 3 2 4 2 2 5 3 5 6 6 6 6 6 13 22 11 1 5 25 25 26 22
44 39 35 32 30 30 35 47 42 35 40 15 14 30 52 48 45 38 14 5 4 1 5 2 3 5 6 3 3 4 2 5 5 8 5 11 22 18 23 20 29 24 27 24
39 36 35 35 32 29 36 51 41 39 26 32 44 42 37 50 55 52 17 14 12 4 2 8 4 7 4 2 2 5 6 7 6 9 9 19 20 29 32 33 35 29 29 26
40 40 38 36 30 33 35 54 47 40 7 5 18 16 23 12 22 45 62 60 23 18 11 5 6 5 4 4 5 3 8 11 10 9 11 13 27 21 22 27 27 30 29 29
42 41 39 35 38 35 35 51 49 45 29 4 12 28 35 34 36 36 36 58 59 33 9 7 6 8 3 3 1 4 8 8 6 4 13 13 12 19 19 25 28 27 24 23
41 38 39 36 34 23 55 17 42 42 40 9 6 10 14 13 18 22 42 38 38 25 12 8 8 8 1 2 2 8 14 15 23 8 21 32 23 24 24 24 24 24 23 24
39 38 39 40 36 34 54 17 11 34 43 5 6 9 4 4 14 14 21 23 17 18 8 8 5 6 5 3 2 8 14 16 18 20 14 16 24 15 17 20 22 20 20 21
38 37 38 31 26 43 52 19 12 45 39 10 5 7 8 9 9 9 17 17 19 14 8 9 5 3 3 2 8 6 8 4 16 21 22 20 18 12 14 14 16 18 18 20
46 46 39 32 41 30 40 30 12 42 15 10 7 4 6 6 12 10 15 16 5 9 4 5 3 2 2 2 14 11 14 10 12 8 9 11 10 11 13 14 15 15 16 16
54 47 31 17 29 40 52 31 23 16 12 13 6 11 6 6 5 8 13 9 6 5 9 17 4 3 14 14 15 12 10 13 13 5 6 12 13 11 11 13 13 13 11 10
56 31 12 50 77 39 19 13 10 12 6 13 12 31 8 9 4 4 13 5 7 6 5 8 5 5 7 14 13 10 11 13 13 9 7 6 8 7 6 10 11 11 10 11
36 45 72 46 15 10 7 7 8 9 10 11 8 12 19 10 7 6 9 6 4 6 8 5 4 6 22 18 12 8 9 10 10 8 6 3 6 6 5 5 9 13 13 13
92 40 11 9 3 8 12 13 8 7 9 14 11 5 10 7 6 7 3 6 3 9 6 3 1 21 16 12 7 10 10 11 11 14 14 14 15 14 15 17 19 18 17 20
15 6 10 5 4 2 5 2 4 4 8 15 19 7 4 2 1 4 4 4 2 5 3 4 1 16 12 8 6 6 9 11 13 14 14 15 16 19 20 22 23 17 18 19
12 11 8 5 5 7 4 5 6 8 10 12 14 10 5 5 5 5 3 8 6 5 3 3 13 11 9 8 8 9 11 13 14 17 18 20 19 18 22 23 21 20 20 19
12 17 9 7 8 8 11 13 11 8 11 13 10 5 8 7 4 8 4 2 3 4 1 16 13 11 10 10 10 12 14 15 17 18 21 23 22 22 24 22 20 19 18 15
10 10 22 19 17 12 9 9 8 8 7 4 6 9 3 2 6 5 5 5 5 14 20 15 11 12 13 13 16 17 16 17 19 21 21 22 22 22 20 21 22 20 19 17
Wind_Direction_500mb
308 317 318 323 326 327 337 341 347 338 203 45 135 300 283 324 303 319 310 297 290 7 356 3 18 15 17 356 337 344 10 12 256 236 255 184 163 212 174 169 208 221 244 268
295 305 309 313 314 326 335 325 297 7 225 317 270 287 270 267 313 318 332 327 5 342 338 347 0 349 45 13 348 6 347 355 45 328 16 13 108 108 19 119 94 214 183 266
287 293 292 286 284 292 282 315 323 322 307 293 317 327 329 320 316 279 294 290 335 328 248 236 310 307 7 350 345 334 329 0 302 177 223 319 301 141 85 121 149 172 225 284
279 294 291 281 257 252 228 214 247 247 297 135 297 315 302 298 318 311 353 21 33 20 313 328 220 309 350 322 330 2 302 225 270 245 351 311 234 278 58 146 285 189 242 303
274 283 281 271 233 234 218 215 216 219 282 290 282 274 275 319 344 309 24 18 334 317 264 229 285 321 76 302 350 324 302 7 294 297 90 289 284 207 196 272 215 262 254 278
264 270 276 266 239 221 209 216 232 282 289 312 53 249 270 321 0 295 273 325 319 295 275 274 267 263 260 214 270 318 265 244 264 304 80 313 268 223 170 107 42 250 243 16
260 264 263 261 243 244 240 219 196 199 261 222 218 264 315 310 312 279 293 303 266 286 322 313 285 257 249 219 240 216 277 347 349 303 22 215 273 22 132 99 58 27 63 2
251 254 259 258 253 253 248 226 206 181 244 224 253 255 267 288 294 275 269 285 267 312 330 321 304 280 322 259 235 219 206 175 299 334 165 273 174 334 106 155 45 354 356 358
249 251 256 260 256 244 239 249 226 192 198 231 247 264 255 248 267 307 265 305 324 324 68 334 294 310 303 334 165 17 142 183 155 134 39 270 239 211 7 195 180 152 335 12
247 248 255 259 255 245 237 238 243 214 221 241 237 187 212 215 259 270 313 342 331 6 37 270 263 281 291 311 300 153 101 146 198 148 254 285 330 314 342 143 204 72 35 17
242 244 248 258 256 251 249 226 233 224 219 244 236 240 234 236 225 202 323 338 355 320 294 270 297 233 261 295 196 184 188 148 176 168 188 257 2 334 214 142 74 80 65 43
239 248 253 256 263 260 239 212 226 231 231 254 267 268 246 244 252 259 250 266 299 236 297 256 315 305 335 337 315 37 10 325 285 201 185 64 30 49 74 106 88 69 66 55
244 251 252 256 255 247 235 221 216 220 236 262 270 269 281 251 250 238 233 254 230 180 217 313 299 258 130 297 270 270 231 43 259 144 53 71 56 68 81 81 79 72 64 63
237 244 248 250 237 235 234 216 216 216 205 257 270 250 247 276 251 234 228 233 239 288 297 293 274 266 173 264 275 310 19 318 328 72 108 94 50 68 80 74 67 57 51 52
238 240 246 233 231 242 232 222 219 216 209 270 278 294 292 264 242 248 234 232 241 247 260 230 242 261 322 263 123 63 18 351 0 41 341 62 50 75 71 65 51 44 44 44
253 242 229 221 225 245 197 191 227 218 224 257 304 288 272 267 238 251 229 228 223 213 218 225 252 273 298 301 76 59 72 45 35 349 68 92 85 68 58 59 46 35 31 35
247 231 212 223 227 228 185 185 208 203 204 194 274 282 265 275 223 194 202 211 195 201 237 214 247 310 14 337 168 73 72 61 48 67 141 66 59 70 52 42 31 22 28 29
223 218 215 222 221 211 191 172 174 168 175 187 239 261 313 202 175 152 165 172 188 218 225 180 193 203 71 189 110 56 32 41 39 53 67 88 102 75 48 33 22 14 27 27
228 226 227 217 208 183 187 170 156 169 167 187 213 214 240 228 194 161 163 171 163 201 180 207 146 99 211 0 119 82 45 43 2 39 63 73 74 52 27 14 12 20 29 22
223 221 188 187 162 168 137 135 155 167 218 217 225 202 249 192 212 168 141 157 184 193 210 138 102 98 90 92 105 88 50 26 17 147 356 34 44 21 11 18 14 20 24 14
204 166 135 144 143 154 170 141 163 172 219 212 222 198 195 220 180 241 185 163 166 215 170 168 145 138 116 133 101 69 34 17 22 27 36 42 47 47 37 30 13 8 14 34
139 138 130 128 133 143 151 156 143 193 215 188 183 187 194 180 202 231 188 169 163 217 120 94 123 98 122 122 105 65 36 23 26 31 35 56 37 65 39 19 36 51 62 69
120 117 116 146 51 108 160 171 177 193 188 173 178 138 149 156 231 248 164 150 159 101 45 119 71 119 115 104 66 35 28 23 27 41 47 56 65 75 76 76 75 75 83 86
70 97 58 48 34 76 189 101 108 139 143 150 141 96 95 78 45 344 77 24 116 90 82 229 1 113 110 84 55 28 50 45 50 59 63 70 76 81 83 79 76 78 90 89
72 60 67 70 125 77 90 108 112 81 111 135 113 85 85 23 63 17 36 37 60 31 194 230 116 113 100 69 55 54 65 70 76 71 73 77 83 91 93 87 82 77 78 80
64 50 67 70 70 14 45 59 72 71 90 86 67 90 62 41 90 47 22 12 198 233 152 133 132 116 97 85 74 80 82 79 83 90 89 89 90 91 89 88 81 76 73 70
57 52 60 83 73 55 50 43 39 66 54 79 65 62 188 78 55 59 17 160 212 139 130 121 104 98 97 99 90 87 90 94 97 99 97 93 88 84 83 78 72 66 66 65
Wind_Speed_850mb
15 16 19 18 21 21 21 13 5 4 6 6 2 3 5 18 10 18 6 4 5 6 10 8 9 11 10 21 22 13 4 2 3 12 6 6 7 4 12 7 6 4 4 22
14 17 17 16 18 16 9 13 12 3 6 1 2 10 8 9 8 11 9 8 5 3 5 9 7 4 1 16 11 7 11 4 2 9 6 5 8 4 1 3 5 10 7 10
19 21 22 19 17 14 8 6 6 7 2 5 8 7 7 7 17 8 8 7 9 8 4 7 9 6 3 20 15 24 2 2 4 7 6 9 8 6 5 2 5 6 8 8
19 22 23 20 18 19 10 3 6 3 4 2 5 8 6 9 6 8 17 8 11 6 7 10 7 5 9 9 13 15 4 2 4 7 10 19 9 6 4 1 5 7 6 5
19 21 20 17 17 24 22 8 5 3 8 13 8 6 5 9 10 6 4 6 17 10 7 8 9 11 3 6 12 5 8 6 4 5 8 21 15 16 9 15 14 21 13 8
23 23 18 15 19 34 24 24 16 4 8 5 2 6 6 8 10 8 8 13 15 11 10 22 42 33 21 12 4 5 4 4 4 1 5 14 10 9 5 8 6 5 8 6
28 25 21 19 21 34 43 31 21 11 7 5 7 8 6 10 12 11 27 32 6 9 42 35 30 30 25 16 25 20 10 7 2 5 9 3 8 7 16 20 10 12 9 11
31 30 25 23 24 31 39 45 33 17 5 13 15 20 15 19 24 13 24 40 17 37 10 8 9 2 5 11 20 13 24 4 4 2 2 9 4 4 3 6 1 8 10 13
35 34 30 26 29 29 39 50 55 20 3 11 33 7 14 6 6 9 9 19 25 11 2 4 4 3 5 3 5 14 12 8 6 1 3 5 5 2 16 5 4 1 8 9
40 38 34 30 29 31 40 46 48 43 12 20 14 6 6 6 4 5 9 15 14 11 2 3 3 4 3 4 3 2 4 3 11 4 3 11 6 14 11 4 5 11 15 15
39 39 37 28 31 34 46 49 44 48 18 36 18 28 34 14 6 2 15 15 4 6 3 2 4 2 2 5 3 5 6 6 6 6 6 13 22 11 1 5 25 25 26 22
44 39 35 32 30 30 35 47 42 35 40 15 14 30 52 48 45 38 14 5 4 1 5 2 3 5 6 3 3 4 2 5 5 8 5 11 22 18 23 20 29 24 27 24
39 36 35 35 32 29 36 51 41 39 26 32 44 42 37 50 55 52 17 14 12 4 2 8 4 7 4 2 2 5 6 7 6 9 9 19 20 29 32 33 35 29 29 26
40 40 38 36 30 33 35 54 47 40 7 5 18 16 23 12 22 45 62 60 23 18 11 5 6 5 4 4 5 3 8 11 10 9 11 13 27 21 22 27 27 30 29 29
42 41 39 35 38 35 35 51 49 45 29 4 12 28 35 34 36 36 36 58 59 33 9 7 6 8 3 3 1 4 8 8 6 4 13 13 12 19 19 25 28 27 24 23
41 38 39 36 34 23 55 17 42 42 40 9 6 10 14 13 18 22 42 38 38 25 12 8 8 8 1 2 2 8 14 15 23 8 21 32 23 24 24 24 24 24 23 24
39 38 39 40 36 34 54 17 11 34 43 5 6 9 4 4 14 14 21 23 17 18 8 8 5 6 5 3 2 8 14 16 18 20 14 16 24 15 17 20 22 20 20 21
38 37 38 31 26 43 52 19 12 45 39 10 5 7 8 9 9 9 17 17 19 14 8 9 5 3 3 2 8 6 8 4 16 21 22 20 18 12 14 14 16 18 18 20
46 46 39 32 41 30 40 30 12 42 15 10 7 4 6 6 12 10 15 16 5 9 4 5 3 2 2 2 14 11 14 10 12 8 9 11 10 11 13 14 15 15 16 16
54 47 31 17 29 40 52 31 23 16 12 13 6 11 6 6 5 8 13 9 6 5 9 17 4 3 14 14 15 12 10 13 13 5 6 12 13 11 11 13 13 13 11 10
56 31 12 50 77 39 19 13 10 12 6 13 12 31 8 9 4 4 13 5 7 6 5 8 5 5 7 14 13 10 11 13 13 9 7 6 8 7 6 10 11 11 10 11
36 45 72 46 15 10 7 7 8 9 10 11 8 12 19 10 7 6 9 6 4 6 8 5 4 6 22 18 12 8 9 10 10 8 6 3 6 6 5 5 9 13 13 13
92 40 11 9 3 8 12 13 8 7 9 14 11 5 10 7 6 7 3 6 3 9 6 3 1 21 16 12 7 10 10 11 11 14 14 14 15 14 15 17 19 18 17 20
15 6 10 5 4 2 5 2 4 4 8 15 19 7 4 2 1 4 4 4 2 5 3 4 1 16 12 8 6 6 9 11 13 14 14 15 16 19 20 22 23 17 18 19
12 11 8 5 5 7 4 5 6 8 10 12 14 10 5 5 5 5 3 8 6 5 3 3 13 11 9 8 8 9 11 13 14 17 18 20 19 18 22 23 21 20 20 19
12 17 9 7 8 8 11 13 11 8 11 13 10 5 8 7 4 8 4 2 3 4 1 16 13 11 10 10 10 12 14 15 17 18 21 23 22 22 24 22 20 19 18 15
10 10 22 19 17 12 9 9 8 8 7 4 6 9 3 2 6 5 5 5 5 14 20 15 11 12 13 13 16 17 16 17 19 21 21 22 22 22 20 21 22 20 19 17
Wind_Direction_850mb
308 317 318 323 326 327 337 341 347 338 203 45 135 300 283 324 303 319 310 297 290 7 356 3 18 15 17 356 337 344 10 12 256 236 255 184 163 212 174 169 208 221 244 268
295 305 309 313 314 326 335 325 297 7 225 317 270 287 270 267 313 318 332 327 5 342 338 347 0 349 45 13 348 6 347 355 45 328 16 13 108 108 19 119 94 214 183 266
287 293 292 286 284 292 282 315 323 322 307 293 317 327 329 320 316 279 294 290 335 328 248 236 310 307 7 350 345 334 329 0 302 177 223 319 301 141 85 121 149 172 225 284
279 294 291 281 257 252 228 214 247 247 297 135 297 315 302 298 318 311 353 21 33 20 313 328 220 309 350 322 330 2 302 225 270 245 351 311 234 278 58 146 285 189 242 303
274 283 281 271 233 234 218 215 216 219 282 290 282 274 275 319 344 309 24 18 334 317 264 229 285 321 76 302 350 324 302 7 294 297 90 289 284 207 196 272 215 262 254 278
264 270 276 266 239 221 209 216 232 282 289 312 53 249 270 321 0 295 273 325 319 295 275 274 267 263 260 214 270 318 265 244 264 304 80 313 268 223 170 107 42 250 243 16
260 264 263 261 243 244 240 219 196 199 261 222 218 264 315 310 312 279 293 303 266 286 322 313 285 257 249 219 240 216 277 347 349 303 22 215 273 22 132 99 58 27 63 2
251 254 259 258 253 253 248 226 206 181 244 224 253 255 267 288 294 275 269 285 267 312 330 321 304 280 322 259 235 219 206 175 299 334 165 273 174 334 106 155 45 354 356 358
249 251 256 260 256 244 239 249 226 192 198 231 247 264 255 248 267 307 265 305 324 324 68 334 294 310 303 334 165 17 142 183 155 134 39 270 239 211 7 195 180 152 335 12
247 248 255 259 255 245 237 238 243 214 221 241 237 187 212 215 259 270 313 342 331 6 37 270 263 281 291 311 300 153 101 146 198 148 254 285 330 314 342 143 204 72 35 17
242 244 248 258 256 251 249 226 233 224 219 244 236 240 234 236 225 202 323 338 355 320 294 270 297 233 261 295 196 184 188 148 176 168 188 257 2 334 214 142 74 80 65 43
239 248 253 256 263 260 239 212 226 231 231 254 267 268 246 244 252 259 250 266 299 236 297 256 315 305 335 337 315 37 10 325 285 201 185 64 30 49 74 106 88 69 66 55
244 251 252 256 255 247 235 221 216 220 236 262 270 269 281 251 250 238 233 254 230 180 217 313 299 258 130 297 270 270 231 43 259 144 53 71 56 68 81 81 79 72 64 63
237 244 248 250 237 235 234 216 216 216 205 257 270 250 247 276 251 234 228 233 239 288 297 293 274 266 173 264 275 310 19 318 328 72 108 94 50 68 80 74 67 57 51 52
238 240 246 233 231 242 232 222 219 216 209 270 278 294 292 264 242 248 234 232 241 247 260 230 242 261 322 263 123 63 18 351 0 41 341 62 50 75 71 65 51 44 44 44
253 242 229 221 225 245 197 191 227 218 224 257 304 288 272 267 238 251 229 228 223 213 218 225 252 273 298 301 76 59 72 45 35 349 68 92 85 68 58 59 46 35 31 35
247 231 212 223 227 228 185 185 208 203 204 194 274 282 265 275 223 194 202 211 195 201 237 214 247 310 14 337 168 73 72 61 48 67 141 66 59 70 52 42 31 22 28 29
223 218 215 222 221 211 191 172 174 168 175 187 239 261 313 202 175 152 165 172 188 218 225 180 193 203 71 189 110 56 32 41 39 53 67 88 102 75 48 33 22 14 27 27
228 226 227 217 208 183 187 170 156 169 167 187 213 214 240 228 194 161 163 171 163 201 180 207 146 99 211 0 119 82 45 43 2 39 63 73 74 52 27 14 12 20 29 22
223 221 188 187 162 168 137 135 155 167 218 217 225 202 249 192 212 168 141 157 184 193 210 138 102 98 90 92 105 88 50 26 17 147 356 34 44 21 11 18 14 20 24 14
204 166 135 144 143 154 170 141 163 172 219 212 222 198 195 220 180 241 185 163 166 215 170 168 145 138 116 133 101 69 34 17 22 27 36 42 47 47 37 30 13 8 14 34
139 138 130 128 133 143 151 156 143 193 215 188 183 187 194 180 202 231 188 169 163 217 120 94 123 98 122 122 105 65 36 23 26 31 35 56 37 65 39 19 36 51 62 69
120 117 116 146 51 108 160 171 177 193 188 173 178 138 149 156 231 248 164 150 159 101 45 119 71 119 115 104 66 35 28 23 27 41 47 56 65 75 76 76 75 75 83 86
70 97 58 48 34 76 189 101 108 139 143 150 141 96 95 78 45 344 77 24 116 90 82 229 1 113 110 84 55 28 50 45 50 59 63 70 76 81 83 79 76 78 90 89
72 60 67 70 125 77 90 108 112 81 111 135 113 85 85 23 63 17 36 37 60 31 194 230 116 113 100 69 55 54 65 70 76 71 73 77 83 91 93 87 82 77 78 80
64 50 67 70 70 14 45 59 72 71 90 86 67 90 62 41 90 47 22 12 198 233 152 133 132 116 97 85 74 80 82 79 83 90 89 89 90 91 89 88 81 76 73 70
57 52 60 83 73 55 50 43 39 66 54 79 65 62 188 78 55 59 17 160 212 139 130 121 104 98 97 99 90 87 90 94 97 99 97 93 88 84 83 78 72 66 66 65